Home   Weather   Helsingborg   Past weeks

Flag for Sweden Past Weather in Helsingborg, Sweden — Yesterday and Last 2 Weeks

Now
37 °F

Chilly.


Feels Like: 37 °F
Forecast: 37 / 51 °F
Wind: 2 mph from North

Location: Ljungbyhed

Current Time: Apr 30, 2017 at 9:23:51 am

Latest Report: Apr 30, 2017 at 8:20 am


Visibility: N/A

Pressure: 30.24 "Hg

Humidity: 93%

Dew Point: 36 °F

Location of HelsingborgLocation

Past Weather in Helsingborg — Graph

°F

Helsingborg Temperature Yesterday

Maximum temperature yesterday: 50 °F (at 1:20 pm)
Minimum temperature yesterday: 34 °F (at 11:50 pm)
Average temperature yesterday: 42 °F

High & Low Weather Summary for the Past Weeks

 TemperatureHumidityPressure
High54 °F (Apr 28, 3:50 pm)100% (Apr 15, 2:20 pm)30.60 "Hg (Apr 15, 2:20 pm)
Low21 °F (Apr 18, 5:20 am)31% (Apr 18, 4:50 pm)29.50 "Hg (Apr 25, 5:50 am)
Average40 °F74%29.97 "Hg
* Reported Apr 15 8:20 am — Apr 30 8:20 am, Helsingborg, Weather by CustomWeather, © 2017

Note: Actual official high and low records may vary slightly from our data, if they occured in-between our weather recording intervals... More about our weather records

Advertising

Helsingborg Weather History for the Previous 24 Hours

Scroll right to see more
 ConditionsComfort  
Time TempWeatherWind HumidityBarometerVisibility
8:20 am
Sun, Apr 30
37 °FChilly.2 mph93%30.24 "HgN/A
7:50 am34 °FFog.3 mph93%30.24 "Hg1 mi
7:20 am32 °FChilly.2 mph93%30.24 "HgN/A
6:50 am28 °FChilly.3 mph100%30.21 "Hg1 mi
6:20 am28 °FLight fog.3 mph100%30.21 "Hg0 mi
5:50 am28 °FIce fog.3 mph100%30.21 "Hg0 mi
5:20 am28 °FIce fog.3 mph100%30.21 "Hg0 mi
4:50 am27 °FIce fog.1 mph100%30.21 "Hg0 mi
4:20 am28 °FIce fog.2 mph100%30.21 "Hg0 mi
3:50 am28 °FIce fog.1 mph100%30.21 "Hg0 mi
3:20 am28 °FIce fog.2 mph100%30.18 "Hg0 mi
2:50 am30 °FIce fog.2 mph100%30.18 "Hg0 mi
2:20 am30 °FIce fog.3 mph100%30.18 "Hg0 mi
1:50 am30 °FIce fog.2 mph100%30.18 "Hg0 mi
1:20 am30 °FLight fog.No wind100%30.18 "Hg0 mi
12:50 am32 °FFog.3 mph100%30.18 "Hg1 mi
12:20 am34 °FFog.3 mph100%30.18 "Hg1 mi
11:50 pm
Sat, Apr 29
34 °FPartly cloudy.1 mph100%30.18 "HgN/A
11:20 pm37 °FPassing clouds.1 mph93%30.15 "HgN/A
10:50 pm37 °FPartly cloudy.2 mph93%30.15 "HgN/A
10:20 pm37 °FPartly cloudy.5 mph93%30.15 "HgN/A
9:50 pm39 °FPartly cloudy.7 mph87%30.15 "HgN/A
9:20 pm39 °FPassing clouds.7 mph87%30.15 "HgN/A
8:50 pm41 °FPartly cloudy.6 mph87%30.15 "HgN/A
8:20 pm41 °FDrizzle. Broken clouds.7 mph87%30.12 "HgN/A
7:50 pm41 °FBroken clouds.10 mph87%30.12 "HgN/A
7:20 pm43 °FScattered clouds.3 mph87%30.12 "HgN/A
6:50 pm41 °FDrizzle. Broken clouds.8 mph93%30.09 "HgN/A
6:20 pm41 °FRain. Scattered clouds.10 mph87%30.09 "Hg3 mi
5:50 pm41 °FHeavy rain. Partly sunny.15 mph87%30.09 "HgN/A
5:20 pm50 °FPassing clouds.6 mph58%30.07 "HgN/A
4:50 pm48 °FScattered clouds.7 mph66%30.07 "HgN/A
4:20 pm46 °FPassing clouds.6 mph71%30.07 "HgN/A
3:50 pm46 °FBroken clouds.6 mph71%30.07 "HgN/A
3:20 pm46 °FDrizzle. Broken clouds.15 mph76%30.04 "HgN/A
2:50 pm45 °FDrizzle. Broken clouds.16 mph76%30.04 "HgN/A
2:20 pm50 °FBroken clouds.3 mph50%30.01 "HgN/A
1:50 pm50 °FPassing clouds.5 mph50%30.01 "HgN/A
1:20 pm50 °FDrizzle. Broken clouds.5 mph58%30.01 "HgN/A
12:50 pm48 °FScattered clouds.6 mph66%30.01 "HgN/A
12:20 pm46 °FScattered clouds.6 mph66%30.01 "HgN/A
11:50 am45 °FScattered clouds.3 mph71%30.01 "HgN/A
11:20 am43 °FLight rain. Scattered clouds.7 mph81%30.01 "HgN/A
10:50 am43 °FDrizzle. Broken clouds.8 mph81%30.01 "HgN/A
10:20 am43 °FDrizzle. Partly sunny.9 mph76%30.01 "HgN/A
9:50 am43 °FBroken clouds.12 mph71%30.01 "HgN/A
9:20 am41 °FPartly sunny.13 mph76%29.98 "HgN/A
Weather by CustomWeather, © 2017

See weather overviewHow to use our weather pages